TimeEST,TemperatureF,Dew PointF,Humidity,Sea Level PressureIn,VisibilityMPH,Wind Direction,Wind SpeedMPH,Gust SpeedMPH,PrecipitationIn,Events,Conditions,WindDirDegrees,DateUTC
12:51 AM,33.1,30.0,89,29.97,10.0,Calm,Calm,-,N/A,,Overcast,0,2012-12-08 05:51:00
1:51 AM,33.1,30.0,89,29.98,10.0,Calm,Calm,-,N/A,,Overcast,0,2012-12-08 06:51:00
2:51 AM,30.9,28.9,92,29.97,10.0,Calm,Calm,-,N/A,,Overcast,0,2012-12-08 07:51:00
3:51 AM,32.0,30.0,92,29.95,10.0,Calm,Calm,-,N/A,,Overcast,0,2012-12-08 08:51:00
4:51 AM,30.9,28.9,92,29.94,10.0,Calm,Calm,-,N/A,,Overcast,0,2012-12-08 09:51:00
5:51 AM,30.9,28.9,92,29.93,10.0,Calm,Calm,-,N/A,,Overcast,0,2012-12-08 10:51:00
6:51 AM,30.9,28.9,92,29.92,10.0,Calm,Calm,-,N/A,,Overcast,0,2012-12-08 11:51:00
7:51 AM,32.0,28.9,88,29.92,10.0,Calm,Calm,-,N/A,,Overcast,0,2012-12-08 12:51:00
8:51 AM,33.1,28.9,85,29.90,10.0,ENE,4.6,-,N/A,,Overcast,60,2012-12-08 13:51:00
9:51 AM,34.0,28.9,82,29.87,10.0,Calm,Calm,-,N/A,,Overcast,0,2012-12-08 14:51:00
10:36 AM,35.6,30.2,81,29.81,10.0,Calm,Calm,-,N/A,,Overcast,0,2012-12-08 15:36:00
10:51 AM,35.1,30.0,82,29.85,10.0,Calm,Calm,-,N/A,,Overcast,0,2012-12-08 15:51:00
11:51 AM,37.0,30.9,79,29.82,10.0,Calm,Calm,-,N/A,,Overcast,0,2012-12-08 16:51:00
12:00 PM,37.4,30.2,75,29.76,10.0,Calm,Calm,-,N/A,,Overcast,0,2012-12-08 17:00:00
12:51 PM,39.9,32.0,73,29.77,10.0,Calm,Calm,-,N/A,,Overcast,0,2012-12-08 17:51:00
1:35 PM,39.2,33.8,81,29.71,10.0,Calm,Calm,-,N/A,,Overcast,0,2012-12-08 18:35:00
1:51 PM,39.9,33.1,77,29.74,10.0,Calm,Calm,-,N/A,,Overcast,0,2012-12-08 18:51:00
2:51 PM,39.9,33.1,77,29.74,10.0,Calm,Calm,-,N/A,,Overcast,0,2012-12-08 19:51:00
3:21 PM,39.2,33.8,81,29.70,10.0,Calm,Calm,-,N/A,,Overcast,0,2012-12-08 20:21:00
3:51 PM,39.9,36.0,86,29.76,5.0,SW,5.8,-,0.00,Rain,Light Rain,230,2012-12-08 20:51:00
4:06 PM,39.2,39.2,100,29.72,2.0,SW,8.1,-,0.00,,Overcast,230,2012-12-08 21:06:00
4:44 PM,39.2,39.2,100,29.73,3.0,WSW,5.8,-,0.00,,Overcast,240,2012-12-08 21:44:00
4:51 PM,39.0,39.0,100,29.78,3.0,WSW,5.8,-,0.00,,Overcast,240,2012-12-08 21:51:00
5:05 PM,39.2,39.2,100,29.74,3.0,SW,6.9,-,N/A,,Overcast,230,2012-12-08 22:05:00
5:12 PM,39.2,39.2,100,29.75,2.5,SW,6.9,-,N/A,,Overcast,220,2012-12-08 22:12:00
5:29 PM,39.2,39.2,100,29.75,3.0,SW,6.9,-,N/A,,Overcast,230,2012-12-08 22:29:00
5:51 PM,39.0,39.0,100,29.81,3.0,SW,5.8,-,N/A,,Overcast,230,2012-12-08 22:51:00
6:34 PM,41.0,39.2,93,29.78,6.0,SW,6.9,-,N/A,,Overcast,230,2012-12-08 23:34:00
6:51 PM,41.0,39.9,96,29.83,4.0,WSW,9.2,17.3,N/A,,Overcast,240,2012-12-08 23:51:00
8:51 PM,39.0,37.0,93,29.88,10.0,WSW,5.8,21.9,N/A,,Overcast,240,2012-12-09 01:51:00
9:51 PM,37.0,36.0,96,29.92,10.0,WSW,10.4,18.4,N/A,,Overcast,240,2012-12-09 02:51:00
10:51 PM,37.0,35.1,93,29.95,9.0,Variable,5.8,-,N/A,,Overcast,0,2012-12-09 03:51:00
11:39 PM,35.6,33.8,93,29.94,7.0,WSW,8.1,17.3,N/A,,Overcast,250,2012-12-09 04:39:00
11:51 PM,35.1,33.1,92,29.99,6.0,West,5.8,19.6,N/A,,Overcast,260,2012-12-09 04:51:00